OMAA

Abu Dhabi International Airport

Airport
ICAO code
OMAA
IATA Code
AUH
Summary
ICAO Region
MID
ICAO Territory
Location

Abu Dhabi, Abu Dhabi

Serving
Abu Dhabi
Elevation
88 ft
Coordinates
24° 25' 59" N , 54° 39' 4" E
KCC
Airport LOS
Parallel Runway Operation
Airport WX
Fog
Metar
OMAA 240700Z 22004KT 170V280 CAVOK 24/17 Q1017 BECMG 30008KT

International airport to the east of the city of Abu Dhabi.

Climatology

Hot Desert Climate (Köppen climate classification BWh)

Runways

Designator Length Width Surface Rops
13/31 4100 45 ASP Yes/Yes

SKYbrary Partners:

Safety knowledge contributed by: